Flight Information

DEPARTURE
TORRANCE, CA
Elevation:
103
Runways:
H1 - 110x110 - ASPH-G
11R/29L - 3000x75 - ASPH-CONC-F
11L/29R - 5001x150 - ASPH-CONC-F
Active PE Departure:
29L - 29R
Current PE ATIS:
D
Altimeter:
Remarks:
ATIS:
125.6 310-534-2847
Ground:
120.9
Tower:
124.0 (South) 133.075 (North)
DESTINATION
,
Elevation:
TPA:
1000 (est.)


6793.6 NM73° True-14° Var59° HDG

Flight Plan:
(click to file on line)

1. Type
2. Aircraft Identification
3. Aircraft Type / Special Equipment
4. True Airspeed
kts
5. Departure Airport
(ICAO code)
6. Arriving Airport
(ICAO code)
7. Cruising Altitude
ft
8. Alternate Airport
(ICAO code)
9. Route of Flight
10. Remarks


00:00:00 Departure ATIS: Destination ATIS:

Clearance Limit:
Route:
Altitude: Expect in minutes
Frequency:
Transponder: (7500 Hijack / 7600 Lost Comms / 7700 Emergency)


KTOA 302352Z 30008KT 10SM SKC 33/06 A2986
Time: 2020-09-30T23:52:00Z
1601523482
Winds: 300 @ 8 kts
Visibility: 10.0 sm
Clouds (AGL): SKC
Temperature: 33.0 C
Dew Point: 6.0 C
Pressure: 29.861221 in Hgbr


Notes:

Data extracted from FAA Digital Chart Supplement. Effective: 0901Z Thursday, Sep 10, 2020 to 0901Z Thursday, Nov 5, 2020
Current ATIS data is provided courtisy of PilotEdge.